sampling_time,wmo_synop_id,msc_id,stn_nam,stn_elev,lat,long,stn_typ,date_tm,rpt_typ,result_time,crnt_buoy_lat,crnt_buoy_lat_qa_summary,crnt_buoy_long,crnt_buoy_long_qa_summary,avg_air_temp_pst10mts,avg_air_temp_pst10mts_qa_summary,avg_sea_sfc_temp_pst10mts,avg_sea_sfc_temp_pst10mts_qa_summary,avg_batry_volt_pst10mts,avg_batry_volt_pst10mts_qa_summary,avg_solr_panl_crnt_pst10mts,avg_solr_panl_crnt_pst10mts_qa_summary,avg_wtr_lvl_snsr_volt_pst10mts,avg_wtr_lvl_snsr_volt_pst10mts_qa_summary,avg_wave_hgt_pst20mts,avg_wave_hgt_pst20mts_qa_summary,pk_wave_hgt_pst20mts,pk_wave_hgt_pst20mts_qa_summary,sig_wave_pd_pst20mts,sig_wave_pd_pst20mts_qa_summary,sig_wave_hgt_pst20mts,sig_wave_hgt_pst20mts_qa_summary,avg_max_wave_hgt_pst20mts,avg_max_wave_hgt_pst20mts_qa_summary,avg_max_wave_pd_pst20mts,avg_max_wave_pd_pst20mts_qa_summary,avg_wave_pd_pst20mts,avg_wave_pd_pst20mts_qa_summary,pk_wave_pd_pst20mts,pk_wave_pd_pst20mts_qa_summary,avg_stn_pres_pst10mts,avg_stn_pres_pst10mts_qa_summary,avg_wnd_spd_pst10mts,avg_wnd_spd_pst10mts_qa_summary,avg_wnd_dir_pst10mts,avg_wnd_dir_pst10mts_qa_summary,max_avg_wnd_spd_pst10mts,max_avg_wnd_spd_pst10mts_qa_summary,wnd_snsr_vert_disp,wnd_snsr_vert_disp_qa_summary,pres_tend_amt_pst3hrs,pres_tend_amt_pst3hrs_data_flag,pres_tend_char_pst3hrs,pres_tend_char_pst3hrs_data_flag,avg_mslp_pst10mts,avg_mslp_pst10mts_data_flag,avg_stn_pres_pst10mts_1,avg_stn_pres_pst10mts_1_qa_summary,avg_stn_pres_pst10mts_2,avg_stn_pres_pst10mts_2_qa_summary,avg_wnd_spd_pst10mts_1,avg_wnd_spd_pst10mts_1_qa_summary,avg_wnd_spd_pst10mts_2,avg_wnd_spd_pst10mts_2_qa_summary,avg_wnd_dir_pst10mts_1,avg_wnd_dir_pst10mts_1_qa_summary,avg_wnd_dir_pst10mts_2,avg_wnd_dir_pst10mts_2_qa_summary,max_avg_wnd_spd_pst10mts_1,max_avg_wnd_spd_pst10mts_1_qa_summary,max_avg_wnd_spd_pst10mts_2,max_avg_wnd_spd_pst10mts_2_qa_summary
2022-04-09T00:00:00Z,44488,9302000,EAST CHEDABUCTO BAY,0,45.445,-60.9538,18,2022-04-09T00:00:00.000Z,108,2022-04-09T00:05:42.937Z,45.4452,100,-60.954130000000006,100,2.0,100,0.2,100,12.5,100,0.0,100,2.1,100,0.9,100,1.9,100,4.7,100,1.4,100,1.6,100,4.8,100,4.1,100,4.8,100,1016.1,100,,-10,,-10,,-10,5,100,-2.8,1,8,1,1016.1,1,1016.1,100,1016.1,100,,-10,,-10,,-10,,-10,,-10,,-10
2022-04-09T00:10:00Z,44488,9302000,EAST CHEDABUCTO BAY,0,45.445,-60.9538,18,2022-04-09T00:10:00.000Z,110,2022-04-09T00:15:55.295Z,,-1,,-1,2.9,100,1.2,100,12.6,100,0.0,100,2.4,100,,-1,,-1,,-1,,-1,,-1,,-1,,-1,,-1,1015.8,100,,-10,,-10,,-10,5,100,-2.8,1,8,1,1015.8,1,1015.8,100,1015.8,100,,-10,,-10,,-10,,-10,,-10,,-10
2022-04-09T00:20:00Z,44488,9302000,EAST CHEDABUCTO BAY,0,45.445,-60.9538,18,2022-04-09T00:20:00.000Z,110,2022-04-09T00:26:03.588Z,45.44525,100,-60.9542,100,1.9,100,0.2,100,12.6,100,0.0,100,2.2,100,,-1,,-1,,-1,,-1,,-1,,-1,,-1,,-1,1015.8,100,,-10,,-10,,-10,5,100,-2.5,1,8,1,1015.8,1,1015.8,100,1015.8,100,,-10,,-10,,-10,,-10,,-10,,-10
2022-04-09T00:30:00Z,44488,9302000,EAST CHEDABUCTO BAY,0,45.445,-60.9538,18,2022-04-09T00:30:00.000Z,110,2022-04-09T00:36:01.866Z,45.4452,100,-60.95415,100,1.8,100,0.2,100,12.6,100,0.0,100,2.4,100,,-1,,-1,,-1,,-1,,-1,,-1,,-1,,-1,1015.9,100,,-10,,-10,,-10,5,100,-2.4,1,6,1,1015.9,1,1015.9,100,1015.9,100,,-10,,-10,,-10,,-10,,-10,,-10
2022-04-09T00:40:00Z,44488,9302000,EAST CHEDABUCTO BAY,0,45.445,-60.9538,18,2022-04-09T00:40:00.000Z,110,2022-04-09T00:45:55.494Z,45.44522,100,-60.954130000000006,100,1.8,100,0.2,100,12.5,100,0.0,100,2.4,100,,-1,,-1,,-1,,-1,,-1,,-1,,-1,,-1,1016.1,100,,-10,,-10,,-10,5,100,-2.2,1,6,1,1016.1,1,1016.1,100,1016.1,100,,-10,,-10,,-10,,-10,,-10,,-10
2022-04-09T00:50:00Z,44488,9302000,EAST CHEDABUCTO BAY,0,45.445,-60.9538,18,2022-04-09T00:50:00.000Z,110,2022-04-09T00:56:03.098Z,45.44522,100,-60.95418000000001,100,1.7,100,0.2,100,12.5,100,0.0,100,2.3,100,,-1,,-1,,-1,,-1,,-1,,-1,,-1,,-1,1016.1,100,,-10,,-10,,-10,5,100,-2.3,1,6,1,1016.1,1,1016.1,100,1016.1,100,,-10,,-10,,-10,,-10,,-10,,-10
2022-04-09T01:00:00Z,44488,9302000,EAST CHEDABUCTO BAY,0,45.445,-60.9538,18,2022-04-09T01:00:00.000Z,108,2022-04-09T01:06:14.511Z,45.44522,100,-60.95415,100,1.7,100,0.2,100,12.5,100,0.0,100,2.5,100,1.1,100,2.4,100,4.9,100,1.6,100,1.9,100,5.0,100,4.4,100,5.1,100,1016.0,100,,-10,,-10,,-10,5,100,-2.2,1,6,1,1016.0,1,1016.0,100,1016.0,100,,-10,,-10,,-10,,-10,,-10,,-10
2022-04-09T01:10:00Z,44488,9302000,EAST CHEDABUCTO BAY,0,45.445,-60.9538,18,2022-04-09T01:10:00.000Z,110,2022-04-09T01:19:21.818Z,45.4452,100,-60.95418000000001,100,1.7,100,0.2,100,12.5,100,0.0,100,2.3,100,,-1,,-1,,-1,,-1,,-1,,-1,,-1,,-1,1016.0,100,,-10,,-10,,-10,5,100,-1.7,1,5,1,1016.0,1,1016.0,100,1016.0,100,,-10,,-10,,-10,,-10,,-10,,-10
2022-04-09T01:20:00Z,44488,9302000,EAST CHEDABUCTO BAY,0,45.445,-60.9538,18,2022-04-09T01:20:00.000Z,110,2022-04-09T01:28:23.405Z,45.44522,100,-60.95415,100,2.0,100,0.2,100,12.6,100,0.0,100,2.3,100,,-1,,-1,,-1,,-1,,-1,,-1,,-1,,-1,1016.0,100,,-10,,-10,,-10,5,100,-1.5,1,5,1,1016.0,1,1016.0,100,1016.0,100,,-10,,-10,,-10,,-10,,-10,,-10
2022-04-09T01:30:00Z,44488,9302000,EAST CHEDABUCTO BAY,0,45.445,-60.9538,18,2022-04-09T01:30:00.000Z,110,2022-04-09T01:36:17.689Z,45.44522,100,-60.95412,100,2.0,100,0.2,100,12.5,100,0.0,100,2.4,100,,-1,,-1,,-1,,-1,,-1,,-1,,-1,,-1,1015.7,100,,-10,,-10,,-10,5,100,-1.7,1,6,1,1015.7,1,1015.7,100,1015.7,100,,-10,,-10,,-10,,-10,,-10,,-10
2022-04-09T01:40:00Z,44488,9302000,EAST CHEDABUCTO BAY,0,45.445,-60.9538,18,2022-04-09T01:40:00.000Z,110,2022-04-09T01:46:21.755Z,45.44518,100,-60.95415,100,2.0,100,0.2,100,12.5,100,0.0,100,2.2,100,,-1,,-1,,-1,,-1,,-1,,-1,,-1,,-1,1015.7,100,,-10,,-10,,-10,5,100,-1.5,1,7,1,1015.7,1,1015.7,100,1015.7,100,,-10,,-10,,-10,,-10,,-10,,-10
2022-04-09T01:50:00Z,44488,9302000,EAST CHEDABUCTO BAY,0,45.445,-60.9538,18,2022-04-09T01:50:00.000Z,110,2022-04-09T01:56:26.574Z,45.4452,100,-60.954130000000006,100,2.0,100,0.2,100,12.5,100,0.0,100,2.3,100,,-1,,-1,,-1,,-1,,-1,,-1,,-1,,-1,1015.4,100,,-10,,-10,,-10,5,100,-1.8,1,8,1,1015.4,1,1015.4,100,1015.3,100,,-10,,-10,,-10,,-10,,-10,,-10
2022-04-09T02:00:00Z,44488,9302000,EAST CHEDABUCTO BAY,0,45.445,-60.9538,18,2022-04-09T02:00:00.000Z,108,2022-04-09T02:06:30.117Z,45.44517000000001,100,-60.9542,100,1.8,100,0.2,100,12.5,100,0.0,100,2.3,100,1.2,100,3.4,100,5.4,100,1.9,100,2.3,100,5.3,100,4.8,100,5.1,100,1015.1,100,,-10,,-10,,-10,5,100,-2.1,1,6,1,1015.1,1,1015.1,100,1015.1,100,,-10,,-10,,-10,,-10,,-10,,-10
2022-04-09T02:10:00Z,44488,9302000,EAST CHEDABUCTO BAY,0,45.445,-60.9538,18,2022-04-09T02:10:00.000Z,110,2022-04-09T02:19:27.613Z,45.4452,100,-60.95412,100,1.8,100,0.2,100,12.5,100,0.0,100,2.4,100,,-1,,-1,,-1,,-1,,-1,,-1,,-1,,-1,1015.1,100,,-10,,-10,,-10,5,100,-1.9,1,6,1,1015.1,1,1015.1,100,1015.1,100,,-10,,-10,,-10,,-10,,-10,,-10
2022-04-09T02:20:00Z,44488,9302000,EAST CHEDABUCTO BAY,0,45.445,-60.9538,18,2022-04-09T02:20:00.000Z,110,2022-04-09T02:26:30.826Z,45.44518,100,-60.95417,100,1.9,100,0.2,100,12.5,100,0.0,100,2.3,100,,-1,,-1,,-1,,-1,,-1,,-1,,-1,,-1,1015.1,100,,-10,,-10,,-10,5,100,-1.8,1,6,1,1015.1,1,1015.1,100,1015.1,100,,-10,,-10,,-10,,-10,,-10,,-10
2022-04-09T02:30:00Z,44488,9302000,EAST CHEDABUCTO BAY,0,45.445,-60.9538,18,2022-04-09T02:30:00.000Z,110,2022-04-09T02:36:31.345Z,45.44522,100,-60.95418000000001,100,1.9,100,0.2,100,12.5,100,0.0,100,2.4,100,,-1,,-1,,-1,,-1,,-1,,-1,,-1,,-1,1014.9,100,,-10,,-10,,-10,5,100,-1.8,1,8,1,1014.9,1,1014.9,100,1014.9,100,,-10,,-10,,-10,,-10,,-10,,-10
2022-04-09T02:40:00Z,44488,9302000,EAST CHEDABUCTO BAY,0,45.445,-60.9538,18,2022-04-09T02:40:00.000Z,110,2022-04-09T02:46:29.116Z,45.44522,100,-60.954130000000006,100,1.9,100,0.2,100,12.5,100,0.0,100,2.3,100,,-1,,-1,,-1,,-1,,-1,,-1,,-1,,-1,1014.7,100,,-10,,-10,,-10,5,100,-2.0,1,8,1,1014.7,1,1014.7,100,1014.7,100,,-10,,-10,,-10,,-10,,-10,,-10
2022-04-09T02:50:00Z,44488,9302000,EAST CHEDABUCTO BAY,0,45.445,-60.9538,18,2022-04-09T02:50:00.000Z,110,2022-04-09T02:56:46.867Z,45.44517000000001,100,-60.95415,100,1.8,100,0.1,100,12.5,100,0.0,100,2.3,100,,-1,,-1,,-1,,-1,,-1,,-1,,-1,,-1,1014.5,100,,-10,,-10,,-10,5,100,-2.1,1,8,1,1014.5,1,1014.5,100,1014.5,100,,-10,,-10,,-10,,-10,,-10,,-10
2022-04-09T03:00:00Z,44488,9302000,EAST CHEDABUCTO BAY,0,45.445,-60.9538,18,2022-04-09T03:00:00.000Z,108,2022-04-09T03:05:44.648Z,45.44518,100,-60.954130000000006,100,1.9,100,0.1,100,12.5,100,0.0,100,2.3,100,1.3,100,2.8,100,5.6,100,1.8,100,2.2,100,5.7,100,4.9,100,5.9,100,1014.2,100,,-10,,-10,,-10,5,100,-1.9,1,8,1,1014.2,1,1014.2,100,1014.2,100,,-10,,-10,,-10,,-10,,-10,,-10
2022-04-09T03:10:00Z,44488,9302000,EAST CHEDABUCTO BAY,0,45.445,-60.9538,18,2022-04-09T03:10:00.000Z,110,2022-04-09T03:18:48.700Z,45.44523,100,-60.954130000000006,100,1.9,100,0.1,100,12.5,100,0.0,100,2.5,100,,-1,,-1,,-1,,-1,,-1,,-1,,-1,,-1,1014.0,100,,-10,,-10,,-10,5,100,-1.8,1,8,1,1014.0,1,1014.0,100,1014.0,100,,-10,,-10,,-10,,-10,,-10,,-10
2022-04-09T03:20:00Z,44488,9302000,EAST CHEDABUCTO BAY,0,45.445,-60.9538,18,2022-04-09T03:20:00.000Z,110,2022-04-09T03:26:47.750Z,45.44518,100,-60.954130000000006,100,1.8,100,0.1,100,12.5,100,0.0,100,2.1,100,,-1,,-1,,-1,,-1,,-1,,-1,,-1,,-1,1013.9,100,,-10,,-10,,-10,5,100,-2.0,1,8,1,1013.9,1,1013.9,100,1013.9,100,,-10,,-10,,-10,,-10,,-10,,-10
2022-04-09T03:30:00Z,44488,9302000,EAST CHEDABUCTO BAY,0,45.445,-60.9538,18,2022-04-09T03:30:00.000Z,110,2022-04-09T03:41:48.486Z,45.4452,100,-60.95417,100,1.9,100,0.1,100,12.5,100,0.0,100,2.2,100,,-1,,-1,,-1,,-1,,-1,,-1,,-1,,-1,1013.6,100,,-10,,-10,,-10,5,100,-2.3,1,8,1,1013.6,1,1013.6,100,1013.6,100,,-10,,-10,,-10,,-10,,-10,,-10
2022-04-09T03:40:00Z,44488,9302000,EAST CHEDABUCTO BAY,0,45.445,-60.9538,18,2022-04-09T03:40:00.000Z,110,2022-04-09T03:46:01.589Z,45.44523,100,-60.95415,100,2.1,100,0.1,100,12.4,100,0.0,100,2.3,100,,-1,,-1,,-1,,-1,,-1,,-1,,-1,,-1,1013.1,100,,-10,,-10,,-10,5,100,-3.0,1,8,1,1013.1,1,1013.1,100,1013.1,100,,-10,,-10,,-10,,-10,,-10,,-10
2022-04-09T03:50:00Z,44488,9302000,EAST CHEDABUCTO BAY,0,45.445,-60.9538,18,2022-04-09T03:50:00.000Z,110,2022-04-09T03:56:05.258Z,45.4452,100,-60.95415,100,2.2,100,0.1,100,12.4,100,0.0,100,2.3,100,,-1,,-1,,-1,,-1,,-1,,-1,,-1,,-1,1012.9,100,,-10,,-10,,-10,5,100,-3.2,1,8,1,1012.9,1,1012.9,100,1012.9,100,,-10,,-10,,-10,,-10,,-10,,-10
2022-04-09T04:00:00Z,44488,9302000,EAST CHEDABUCTO BAY,0,45.445,-60.9538,18,2022-04-09T04:00:00.000Z,108,2022-04-09T04:05:52.532Z,45.44522,100,-60.95417,100,2.3,100,0.1,100,12.5,100,0.0,100,2.2,100,1.2,100,3.3,100,5.8,100,1.9,100,2.4,100,5.9,100,4.9,100,6.3,100,1012.8,100,,-10,,-10,,-10,5,100,-3.2,1,8,1,1012.8,1,1012.8,100,1012.8,100,,-10,,-10,,-10,,-10,,-10,,-10
2022-04-09T04:10:00Z,44488,9302000,EAST CHEDABUCTO BAY,0,45.445,-60.9538,18,2022-04-09T04:10:00.000Z,110,2022-04-09T04:18:59.414Z,45.4452,100,-60.954130000000006,100,2.2,100,0.1,100,12.5,100,0.0,100,2.3,100,,-1,,-1,,-1,,-1,,-1,,-1,,-1,,-1,1012.6,100,,-10,,-10,,-10,5,100,-3.4,1,8,1,1012.6,1,1012.6,100,1012.6,100,,-10,,-10,,-10,,-10,,-10,,-10
2022-04-09T04:20:00Z,44488,9302000,EAST CHEDABUCTO BAY,0,45.445,-60.9538,18,2022-04-09T04:20:00.000Z,110,2022-04-09T04:28:07.683Z,45.4452,100,-60.954119999999996,100,2.2,100,0.1,100,12.5,100,0.0,100,2.4,100,,-1,,-1,,-1,,-1,,-1,,-1,,-1,,-1,1012.3,100,,-10,,-10,,-10,5,100,-3.7,1,8,1,1012.3,1,1012.3,100,1012.3,100,,-10,,-10,,-10,,-10,,-10,,-10
2022-04-09T04:30:00Z,44488,9302000,EAST CHEDABUCTO BAY,0,45.445,-60.9538,18,2022-04-09T04:30:00.000Z,110,2022-04-09T04:36:13.401Z,45.44518,100,-60.954130000000006,100,2.3,100,0.1,100,12.5,100,0.0,100,2.3,100,,-1,,-1,,-1,,-1,,-1,,-1,,-1,,-1,1011.9,100,,-10,,-10,,-10,5,100,-3.8,1,8,1,1011.9,1,1011.9,100,1011.9,100,,-10,,-10,,-10,,-10,,-10,,-10
2022-04-09T04:40:00Z,44488,9302000,EAST CHEDABUCTO BAY,0,45.445,-60.9538,18,2022-04-09T04:40:00.000Z,110,2022-04-09T04:46:13.012Z,45.4452,100,-60.954119999999996,100,2.5,100,0.1,100,12.4,100,0.0,100,2.2,100,,-1,,-1,,-1,,-1,,-1,,-1,,-1,,-1,1011.8,100,,-10,,-10,,-10,5,100,-3.9,1,8,1,1011.8,1,1011.8,100,1011.8,100,,-10,,-10,,-10,,-10,,-10,,-10
2022-04-09T04:50:00Z,44488,9302000,EAST CHEDABUCTO BAY,0,45.445,-60.9538,18,2022-04-09T04:50:00.000Z,110,2022-04-09T04:56:15.472Z,45.4452,100,-60.95417,100,2.6,100,0.1,100,12.4,100,0.0,100,2.2,100,,-1,,-1,,-1,,-1,,-1,,-1,,-1,,-1,1011.5,100,,-10,,-10,,-10,5,100,-3.8,1,8,1,1011.5,1,1011.5,100,1011.5,100,,-10,,-10,,-10,,-10,,-10,,-10
2022-04-09T05:00:00Z,44488,9302000,EAST CHEDABUCTO BAY,0,45.445,-60.9538,18,2022-04-09T05:00:00.000Z,108,2022-04-09T05:06:31.538Z,45.44522,100,-60.954130000000006,100,2.3,100,0.1,100,12.4,100,0.0,100,2.3,100,1.4,100,2.9,100,6.2,100,2.1,100,2.5,100,6.2,100,5.2,100,6.9,100,1011.3,100,,-10,,-10,,-10,5,100,-3.8,1,8,1,1011.3,1,1011.3,100,1011.3,100,,-10,,-10,,-10,,-10,,-10,,-10
2022-04-09T05:10:00Z,44488,9302000,EAST CHEDABUCTO BAY,0,45.445,-60.9538,18,2022-04-09T05:10:00.000Z,110,2022-04-09T05:19:28.025Z,45.4452,100,-60.95412,100,2.3,100,0.1,100,12.5,100,0.0,100,2.4,100,,-1,,-1,,-1,,-1,,-1,,-1,,-1,,-1,1011.0,100,,-10,,-10,,-10,5,100,-4.1,1,8,1,1011.0,1,1011.0,100,1011.0,100,,-10,,-10,,-10,,-10,,-10,,-10
2022-04-09T05:20:00Z,44488,9302000,EAST CHEDABUCTO BAY,0,45.445,-60.9538,18,2022-04-09T05:20:00.000Z,110,2022-04-09T05:26:32.467Z,45.44522,100,-60.95415,100,2.4,100,0.1,100,12.4,100,0.0,100,2.4,100,,-1,,-1,,-1,,-1,,-1,,-1,,-1,,-1,1010.3,100,,-10,,-10,,-10,5,100,-4.8,1,8,1,1010.3,1,1010.3,100,1010.3,100,,-10,,-10,,-10,,-10,,-10,,-10
2022-04-09T05:30:00Z,44488,9302000,EAST CHEDABUCTO BAY,0,45.445,-60.9538,18,2022-04-09T05:30:00.000Z,110,2022-04-09T05:37:33.813Z,45.44523,100,-60.954130000000006,100,2.5,100,0.1,100,12.4,100,0.0,100,2.3,100,,-1,,-1,,-1,,-1,,-1,,-1,,-1,,-1,1010.0,100,,-10,,-10,,-10,5,100,-4.9,1,8,1,1010.0,1,1010.0,100,1010.0,100,,-10,,-10,,-10,,-10,,-10,,-10
2022-04-09T05:40:00Z,44488,9302000,EAST CHEDABUCTO BAY,0,45.445,-60.9538,18,2022-04-09T05:40:00.000Z,110,2022-04-09T05:46:32.213Z,45.44522,100,-60.954130000000006,100,2.5,100,0.1,100,12.4,100,0.0,100,2.4,100,,-1,,-1,,-1,,-1,,-1,,-1,,-1,,-1,1009.6,100,,-10,,-10,,-10,5,100,-5.1,1,8,1,1009.6,1,1009.6,100,1009.6,100,,-10,,-10,,-10,,-10,,-10,,-10
2022-04-09T05:50:00Z,44488,9302000,EAST CHEDABUCTO BAY,0,45.445,-60.9538,18,2022-04-09T05:50:00.000Z,110,2022-04-09T05:56:36.732Z,45.44525,100,-60.95412,100,2.7,100,0.1,100,12.4,100,0.0,100,2.2,100,,-1,,-1,,-1,,-1,,-1,,-1,,-1,,-1,1009.4,100,,-10,,-10,,-10,5,100,-5.2,1,8,1,1009.4,1,1009.4,100,1009.4,100,,-10,,-10,,-10,,-10,,-10,,-10
2022-04-09T06:00:00Z,44488,9302000,EAST CHEDABUCTO BAY,0,45.445,-60.9538,18,2022-04-09T06:00:00.000Z,108,2022-04-09T06:06:50.284Z,45.44525,100,-60.954119999999996,100,2.7,100,0.1,100,12.4,100,0.0,100,2.2,100,1.4,100,3.3,100,6.2,100,2.1,100,2.5,100,6.5,100,5.2,100,7.4,100,1009.3,100,,-10,,-10,,-10,5,100,-4.9,1,8,1,1009.3,1,1009.3,100,1009.3,100,,-10,,-10,,-10,,-10,,-10,,-10
2022-04-09T06:10:00Z,44488,9302000,EAST CHEDABUCTO BAY,0,45.445,-60.9538,18,2022-04-09T06:10:00.000Z,110,2022-04-09T06:18:41.786Z,45.44525,100,-60.95408000000001,100,2.8,100,0.1,100,12.4,100,0.0,100,2.1,100,,-1,,-1,,-1,,-1,,-1,,-1,,-1,,-1,1008.9,100,,-10,,-10,,-10,5,100,-5.2,1,8,1,1008.9,1,1008.9,100,1008.9,100,,-10,,-10,,-10,,-10,,-10,,-10
2022-04-09T06:20:00Z,44488,9302000,EAST CHEDABUCTO BAY,0,45.445,-60.9538,18,2022-04-09T06:20:00.000Z,110,2022-04-09T06:25:42.121Z,45.44527,100,-60.954119999999996,100,2.8,100,0.1,100,12.4,100,0.0,100,2.1,100,,-1,,-1,,-1,,-1,,-1,,-1,,-1,,-1,1008.5,100,,-10,,-10,,-10,5,100,-5.4,1,8,1,1008.5,1,1008.5,100,1008.5,100,,-10,,-10,,-10,,-10,,-10,,-10
2022-04-09T06:30:00Z,44488,9302000,EAST CHEDABUCTO BAY,0,45.445,-60.9538,18,2022-04-09T06:30:00.000Z,110,2022-04-09T06:35:40.798Z,45.44525,100,-60.95412,100,3.0,100,0.1,100,12.4,100,0.0,100,2.2,100,,-1,,-1,,-1,,-1,,-1,,-1,,-1,,-1,1008.2,100,,-10,,-10,,-10,5,100,-5.4,1,8,1,1008.2,1,1008.2,100,1008.2,100,,-10,,-10,,-10,,-10,,-10,,-10
2022-04-09T06:40:00Z,44488,9302000,EAST CHEDABUCTO BAY,0,45.445,-60.9538,18,2022-04-09T06:40:00.000Z,110,2022-04-09T06:45:56.667Z,45.44525,100,-60.954130000000006,100,3.2,100,0.1,100,12.4,100,0.0,100,2.3,100,,-1,,-1,,-1,,-1,,-1,,-1,,-1,,-1,1007.9,100,,-10,,-10,,-10,5,100,-5.2,1,8,1,1007.9,1,1007.9,100,1007.9,100,,-10,,-10,,-10,,-10,,-10,,-10
2022-04-09T06:50:00Z,44488,9302000,EAST CHEDABUCTO BAY,0,45.445,-60.9538,18,2022-04-09T06:50:00.000Z,110,2022-04-09T07:01:55.065Z,45.44528,100,-60.954130000000006,100,3.3,100,0.1,100,12.4,100,0.0,100,2.3,100,,-1,,-1,,-1,,-1,,-1,,-1,,-1,,-1,1007.5,100,,-10,,-10,,-10,5,100,-5.4,1,8,1,1007.5,1,1007.5,100,1007.5,100,,-10,,-10,,-10,,-10,,-10,,-10
2022-04-09T07:00:00Z,44488,9302000,EAST CHEDABUCTO BAY,0,45.445,-60.9538,18,2022-04-09T07:00:00.000Z,108,2022-04-09T07:05:57.603Z,45.44532,100,-60.954130000000006,100,3.4,100,0.1,100,12.4,100,0.0,100,2.3,100,1.6,100,4.2,100,6.9,100,2.6,100,3.1,100,6.6,100,5.7,100,7.4,100,1007.3,100,,-10,,-10,,-10,5,100,-5.5,1,8,1,1007.3,1,1007.3,100,1007.3,100,,-10,,-10,,-10,,-10,,-10,,-10
2022-04-09T07:10:00Z,44488,9302000,EAST CHEDABUCTO BAY,0,45.445,-60.9538,18,2022-04-09T07:10:00.000Z,110,2022-04-09T07:20:01.120Z,45.44532,100,-60.95415,100,3.4,100,0.1,100,12.4,100,0.0,100,2.3,100,,-1,,-1,,-1,,-1,,-1,,-1,,-1,,-1,1007.5,100,,-10,,-10,,-10,5,100,-5.1,1,6,1,1007.5,1,1007.5,100,1007.5,100,,-10,,-10,,-10,,-10,,-10,,-10
2022-04-09T07:20:00Z,44488,9302000,EAST CHEDABUCTO BAY,0,45.445,-60.9538,18,2022-04-09T07:20:00.000Z,110,2022-04-09T07:26:02.599Z,45.44532,100,-60.95415,100,3.4,100,0.1,100,12.4,100,0.0,100,2.4,100,,-1,,-1,,-1,,-1,,-1,,-1,,-1,,-1,1007.2,100,,-10,,-10,,-10,5,100,-5.2,1,6,1,1007.2,1,1007.2,100,1007.2,100,,-10,,-10,,-10,,-10,,-10,,-10
2022-04-09T07:30:00Z,44488,9302000,EAST CHEDABUCTO BAY,0,45.445,-60.9538,18,2022-04-09T07:30:00.000Z,110,2022-04-09T07:36:11.371Z,45.44533,100,-60.95412,100,3.5,100,0.1,100,12.4,100,0.0,100,2.4,100,,-1,,-1,,-1,,-1,,-1,,-1,,-1,,-1,1007.3,100,,-10,,-10,,-10,5,100,-4.7,1,6,1,1007.3,1,1007.3,100,1007.3,100,,-10,,-10,,-10,,-10,,-10,,-10
2022-04-09T07:40:00Z,44488,9302000,EAST CHEDABUCTO BAY,0,45.445,-60.9538,18,2022-04-09T07:40:00.000Z,110,2022-04-09T07:46:13.007Z,45.44532,100,-60.95405,100,3.5,100,0.1,100,12.4,100,0.0,100,2.4,100,,-1,,-1,,-1,,-1,,-1,,-1,,-1,,-1,1007.1,100,,-10,,-10,,-10,5,100,-4.8,1,6,1,1007.1,1,1007.1,100,1007.1,100,,-10,,-10,,-10,,-10,,-10,,-10
2022-04-09T07:50:00Z,44488,9302000,EAST CHEDABUCTO BAY,0,45.445,-60.9538,18,2022-04-09T07:50:00.000Z,110,2022-04-09T07:56:15.404Z,45.44535,100,-60.95412,100,3.6,100,0.1,100,12.4,100,0.0,100,2.2,100,,-1,,-1,,-1,,-1,,-1,,-1,,-1,,-1,1007.1,100,,-10,,-10,,-10,5,100,-4.4,1,6,1,1007.1,1,1007.1,100,1007.1,100,,-10,,-10,,-10,,-10,,-10,,-10
2022-04-09T08:00:00Z,44488,9302000,EAST CHEDABUCTO BAY,0,45.445,-60.9538,18,2022-04-09T08:00:00.000Z,108,2022-04-09T08:06:14.926Z,45.44533,100,-60.95408000000001,100,3.6,100,0.0,100,12.4,100,0.0,100,2.2,100,1.8,100,4.7,100,7.0,100,2.8,100,3.5,100,7.1,100,6.0,100,7.7,100,1007.4,100,,-10,,-10,,-10,5,100,-3.9,1,5,1,1007.4,1,1007.4,100,1007.4,100,,-10,,-10,,-10,,-10,,-10,,-10
2022-04-09T08:10:00Z,44488,9302000,EAST CHEDABUCTO BAY,0,45.445,-60.9538,18,2022-04-09T08:10:00.000Z,110,2022-04-09T08:19:19.931Z,45.44535,100,-60.954130000000006,100,3.6,100,0.0,100,12.4,100,0.0,100,2.3,100,,-1,,-1,,-1,,-1,,-1,,-1,,-1,,-1,1007.3,100,,-10,,-10,,-10,5,100,-3.8,1,6,1,1007.3,1,1007.3,100,1007.3,100,,-10,,-10,,-10,,-10,,-10,,-10
2022-04-09T08:20:00Z,44488,9302000,EAST CHEDABUCTO BAY,0,45.445,-60.9538,18,2022-04-09T08:20:00.000Z,110,2022-04-09T08:26:28.917Z,45.44533,100,-60.954130000000006,100,3.5,100,0.0,100,12.4,100,0.0,100,2.1,100,,-1,,-1,,-1,,-1,,-1,,-1,,-1,,-1,1006.9,100,,-10,,-10,,-10,5,100,-3.4,1,6,1,1006.9,1,1006.9,100,1006.9,100,,-10,,-10,,-10,,-10,,-10,,-10
2022-04-09T08:30:00Z,44488,9302000,EAST CHEDABUCTO BAY,0,45.445,-60.9538,18,2022-04-09T08:30:00.000Z,110,2022-04-09T08:36:29.975Z,45.44533,100,-60.95415,100,3.4,100,0.0,100,12.4,100,0.0,100,2.1,100,,-1,,-1,,-1,,-1,,-1,,-1,,-1,,-1,1006.9,100,,-10,,-10,,-10,5,100,-3.2,1,6,1,1006.9,1,1006.9,100,1006.9,100,,-10,,-10,,-10,,-10,,-10,,-10
2022-04-09T08:40:00Z,44488,9302000,EAST CHEDABUCTO BAY,0,45.445,-60.9538,18,2022-04-09T08:40:00.000Z,110,2022-04-09T08:46:33.420Z,45.44532,100,-60.954130000000006,100,3.6,100,0.0,100,12.3,100,0.0,100,2.4,100,,-1,,-1,,-1,,-1,,-1,,-1,,-1,,-1,1006.9,100,,-10,,-10,,-10,5,100,-2.7,1,6,1,1006.9,1,1006.9,100,1006.9,100,,-10,,-10,,-10,,-10,,-10,,-10
2022-04-09T08:50:00Z,44488,9302000,EAST CHEDABUCTO BAY,0,45.445,-60.9538,18,2022-04-09T08:50:00.000Z,110,2022-04-09T08:56:36.940Z,45.4453,100,-60.9541,100,3.6,100,0.0,100,12.3,100,0.0,100,2.1,100,,-1,,-1,,-1,,-1,,-1,,-1,,-1,,-1,1007.1,100,,-10,,-10,,-10,5,100,-2.3,1,6,1,1007.1,1,1007.1,100,1007.1,100,,-10,,-10,,-10,,-10,,-10,,-10
2022-04-09T09:00:00Z,44488,9302000,EAST CHEDABUCTO BAY,0,45.445,-60.9538,18,2022-04-09T09:00:00.000Z,108,2022-04-09T09:06:24.529Z,45.44532,100,-60.95408000000001,100,3.3,100,0.0,100,12.4,100,0.0,100,2.5,100,1.8,100,4.7,100,7.1,100,2.8,100,3.4,100,7.2,100,6.0,100,7.7,100,1007.1,100,,-10,,-10,,-10,5,100,-2.2,1,6,1,1007.1,1,1007.1,100,1007.1,100,,-10,,-10,,-10,,-10,,-10,,-10
2022-04-09T09:10:00Z,44488,9302000,EAST CHEDABUCTO BAY,0,45.445,-60.9538,18,2022-04-09T09:10:00.000Z,110,2022-04-09T09:19:37.003Z,45.44532,100,-60.95405,100,3.3,100,0.0,100,12.4,100,0.0,100,2.2,100,,-1,,-1,,-1,,-1,,-1,,-1,,-1,,-1,1007.2,100,,-10,,-10,,-10,5,100,-1.7,1,6,1,1007.2,1,1007.2,100,1007.2,100,,-10,,-10,,-10,,-10,,-10,,-10
2022-04-09T09:20:00Z,44488,9302000,EAST CHEDABUCTO BAY,0,45.445,-60.9538,18,2022-04-09T09:20:00.000Z,110,2022-04-09T09:26:45.609Z,45.44532,100,-60.954069999999994,100,3.4,100,0.0,100,12.4,100,0.0,100,2.2,100,,-1,,-1,,-1,,-1,,-1,,-1,,-1,,-1,1007.1,100,,-10,,-10,,-10,5,100,-1.4,1,5,1,1007.1,1,1007.1,100,1007.1,100,,-10,,-10,,-10,,-10,,-10,,-10
2022-04-09T09:30:00Z,44488,9302000,EAST CHEDABUCTO BAY,0,45.445,-60.9538,18,2022-04-09T09:30:00.000Z,110,2022-04-09T09:36:41.367Z,45.44533,100,-60.95399999999999,100,3.1,100,0.0,100,12.4,100,0.0,100,2.2,100,,-1,,-1,,-1,,-1,,-1,,-1,,-1,,-1,1007.1,100,,-10,,-10,,-10,5,100,-1.1,1,5,1,1007.1,1,1007.1,100,1007.1,100,,-10,,-10,,-10,,-10,,-10,,-10
2022-04-09T09:40:00Z,44488,9302000,EAST CHEDABUCTO BAY,0,45.445,-60.9538,18,2022-04-09T09:40:00.000Z,110,2022-04-09T09:45:45.922Z,45.44532,100,-60.95401999999999,100,2.9,100,0.0,100,12.3,100,0.0,100,2.3,100,,-1,,-1,,-1,,-1,,-1,,-1,,-1,,-1,1007.2,100,,-10,,-10,,-10,5,100,-0.7,1,5,1,1007.2,1,1007.2,100,1007.2,100,,-10,,-10,,-10,,-10,,-10,,-10
2022-04-09T09:50:00Z,44488,9302000,EAST CHEDABUCTO BAY,0,45.445,-60.9538,18,2022-04-09T09:50:00.000Z,110,2022-04-09T09:57:46.647Z,45.44528,100,-60.95399999999999,100,2.9,100,0.0,100,12.3,100,0.0,100,2.4,100,,-1,,-1,,-1,,-1,,-1,,-1,,-1,,-1,1007.2,100,,-10,,-10,,-10,5,100,-0.3,1,5,1,1007.2,1,1007.2,100,1007.2,100,,-10,,-10,,-10,,-10,,-10,,-10
2022-04-09T10:00:00Z,44488,9302000,EAST CHEDABUCTO BAY,0,45.445,-60.9538,18,2022-04-09T10:00:00.000Z,108,2022-04-09T10:05:45.262Z,45.44533,100,-60.95403,100,2.9,100,0.0,100,12.4,100,0.0,100,2.3,100,1.8,100,5.3,100,7.3,100,2.8,100,3.5,100,7.7,100,6.3,100,8.0,100,1007.4,100,,-10,,-10,,-10,5,100,0.1,1,3,1,1007.4,1,1007.4,100,1007.4,100,,-10,,-10,,-10,,-10,,-10,,-10
2022-04-09T10:10:00Z,44488,9302000,EAST CHEDABUCTO BAY,0,45.445,-60.9538,18,2022-04-09T10:10:00.000Z,110,2022-04-09T10:19:07.644Z,45.4453,100,-60.95397,100,2.8,100,0.0,100,12.4,100,0.0,100,2.2,100,,-1,,-1,,-1,,-1,,-1,,-1,,-1,,-1,1007.5,100,,-10,,-10,,-10,5,100,0.0,1,5,1,1007.5,1,1007.5,100,1007.5,100,,-10,,-10,,-10,,-10,,-10,,-10
2022-04-09T10:20:00Z,44488,9302000,EAST CHEDABUCTO BAY,0,45.445,-60.9538,18,2022-04-09T10:20:00.000Z,110,2022-04-09T10:28:08.258Z,45.44532,100,-60.95401999999999,100,2.8,100,0.0,100,12.4,100,0.0,100,2.2,100,,-1,,-1,,-1,,-1,,-1,,-1,,-1,,-1,1007.4,100,,-10,,-10,,-10,5,100,0.3,1,3,1,1007.4,1,1007.4,100,1007.4,100,,-10,,-10,,-10,,-10,,-10,,-10
2022-04-09T10:30:00Z,44488,9302000,EAST CHEDABUCTO BAY,0,45.445,-60.9538,18,2022-04-09T10:30:00.000Z,110,2022-04-09T10:36:03.833Z,45.4453,100,-60.95398,100,2.7,100,0.0,100,12.5,100,0.2,100,2.2,100,,-1,,-1,,-1,,-1,,-1,,-1,,-1,,-1,1007.3,100,,-10,,-10,,-10,5,100,0.0,1,5,1,1007.3,1,1007.3,100,1007.3,100,,-10,,-10,,-10,,-10,,-10,,-10